Location: ???? ?????????
(31.1304°N, 31.7111°E)
Time: 11:51:35
(UTC+00:00)

ERS-2 - Pass Details

Date: 29 October 2020
Orbit: 493 x 497 km, 98.6° (Epoch: 27 November)

Event Time Altitude Azimuth Distance (km) Brightness Sun altitude
Rises 15:40:57 0° 3° (N) 2,577 5.6 -7.9°
Reaches altitude 10° 15:43:06 10° 355° (N) 1,692 4.8 -8.4°
Maximum altitude 15:46:30 38° 286° (WNW) 761 3.7 -9.1°
Drops below altitude 10° 15:49:53 10° 217° (SW) 1,684 5.5 -9.8°
Sets 15:52:01 0° 209° (SSW) 2,563 6.4 -10.2°
